Lapse_Rate
8.1 5.1 5.0 5.2 5.6 5.6 5.9 6.7 7.5 7.5 6.5 6.2 6.1 5.4 5.6 8.3 9.6 9.6 9.4 9.5 8.3 7.9 6.8 7.1 6.6 6.3 6.5 7.2 7.5 6.9 6.9 7.2 6.9
6.9 4.9 5.1 5.4 5.6 5.8 5.4 5.5 6.3 6.3 5.8 5.7 5.3 4.7 5.8 9.6 9.6 9.7 9.6 9.4 9.2 9.2 8.7 8.6 7.6 6.9 7.6 7.3 7.7 7.8 7.4 7.0 6.6
5.3 5.0 5.3 5.5 5.8 6.1 5.4 5.3 5.3 5.3 5.2 5.0 4.6 4.6 6.7 9.6 9.7 9.6 9.1 8.8 9.1 9.3 8.9 9.0 8.7 8.0 8.5 9.0 7.8 7.2 7.0 6.8 6.6
4.9 5.0 5.4 5.8 6.1 5.7 5.3 5.2 5.2 5.1 5.0 4.7 4.3 5.0 7.1 9.6 9.6 9.6 9.5 8.5 8.6 9.1 9.2 8.0 7.8 8.1 8.6 8.8 6.9 6.8 6.9 7.3 7.6
5.0 5.2 5.5 5.8 5.9 5.2 5.1 5.0 4.9 4.9 4.7 4.5 4.7 6.5 7.9 9.5 9.5 8.4 8.8 8.5 9.1 9.3 9.2 8.5 8.7 7.5 7.7 7.6 7.4 7.0 6.4 6.7 7.6
5.0 5.7 5.2 5.5 5.4 5.2 5.1 4.9 4.7 3.9 3.8 4.4 6.3 8.1 9.0 8.6 6.8 6.9 7.9 8.1 8.8 8.7 8.9 9.1 8.5 8.2 7.5 6.9 7.1 7.1 7.5 7.1 7.9
7.1 4.8 5.0 5.1 5.0 5.0 5.2 4.6 4.4 7.0 8.1 7.0 7.7 9.6 8.8 7.9 8.1 7.7 7.3 7.9 8.1 8.6 8.2 8.1 7.5 7.5 6.8 7.4 7.5 7.2 7.3 7.4 7.6
5.3 5.3 5.9 5.6 5.7 7.4 5.5 5.1 7.5 9.0 9.3 9.5 9.6 9.7 9.5 8.6 9.0 7.3 7.5 7.7 7.7 7.4 7.5 7.1 6.6 7.0 7.6 7.2 7.4 7.3 7.6 8.0 7.6
6.7 6.9 6.9 6.4 8.5 8.7 6.4 7.5 8.5 8.9 9.3 9.6 9.6 9.6 8.7 6.2 7.3 6.8 7.2 6.9 7.1 7.1 6.7 7.0 7.3 7.4 7.6 7.5 7.1 8.0 8.6 8.9 8.7
6.4 6.1 5.5 6.0 6.2 6.2 6.4 6.7 7.5 7.9 8.7 9.5 9.6 9.5 9.1 7.0 6.4 6.7 6.2 7.3 7.3 6.8 7.0 7.6 7.3 7.2 7.7 7.8 8.9 8.7 8.7 8.6 8.6
5.8 5.5 5.4 5.2 5.8 5.9 6.3 6.7 7.5 7.4 7.7 8.2 8.8 8.5 8.4 8.0 6.8 5.3 6.1 6.6 7.2 6.8 7.7 8.0 7.1 8.2 8.3 9.2 9.4 8.8 8.5 8.3 8.6
5.4 5.9 5.5 5.4 5.4 5.7 6.2 6.3 6.7 6.9 7.0 7.5 8.0 8.6 9.3 9.1 7.5 4.7 4.4 4.4 5.4 7.2 7.6 7.4 7.1 7.9 8.4 8.5 7.9 7.9 8.0 8.5 8.3
5.4 5.1 5.6 5.4 5.2 5.5 5.9 6.0 7.0 7.1 7.5 7.4 7.4 7.1 7.7 8.5 7.9 5.1 3.7 3.5 4.7 7.0 7.2 7.5 7.2 8.0 8.3 8.7 8.6 8.6 8.5 8.0 7.8
5.9 5.8 5.0 4.7 5.5 5.8 6.4 6.6 6.5 6.3 6.7 6.8 7.0 6.9 7.1 7.0 7.6 6.3 4.3 3.5 4.3 6.2 6.9 7.3 7.3 8.2 8.5 8.3 8.4 8.7 8.3 8.0 7.9
5.9 6.0 5.4 5.2 5.9 6.5 6.6 6.4 6.3 6.6 6.4 7.0 6.6 6.3 5.7 5.8 6.6 6.8 5.6 4.8 4.9 6.8 8.0 8.8 7.8 7.6 8.0 8.6 8.5 7.9 8.1 8.1 7.3
5.8 6.1 5.9 5.8 5.9 6.5 6.7 6.6 6.2 6.6 6.4 6.0 6.0 6.0 6.2 5.8 5.7 6.1 6.9 5.4 5.0 5.9 8.0 9.0 8.2 7.4 7.2 7.7 8.1 8.2 8.3 8.0 7.0
5.5 5.6 5.6 5.7 6.6 6.5 6.7 6.3 6.5 6.0 6.6 8.2 7.8 8.0 7.5 6.5 6.3 6.1 6.5 6.8 5.5 6.2 7.2 8.3 8.3 8.6 7.7 6.4 6.5 7.8 8.3 8.6 7.7
5.7 5.5 5.8 6.0 6.4 5.5 6.2 6.1 6.4 5.9 6.6 7.5 8.7 8.0 7.8 8.4 6.7 6.9 7.1 7.4 7.8 7.4 6.9 7.4 7.4 7.5 6.8 7.0 6.6 6.4 7.2 8.1 8.2
5.7 5.8 6.0 5.9 5.9 6.1 6.1 5.9 6.2 6.5 5.8 7.5 5.5 5.8 7.2 8.2 7.8 7.0 6.8 7.4 7.8 7.1 6.7 7.1 6.6 6.7 6.7 5.4 5.2 5.9 6.7 7.4 7.8
5.5 5.5 5.7 6.0 6.2 6.5 6.4 6.5 7.0 7.3 7.2 6.5 5.6 6.2 6.3 8.0 8.5 8.0 6.6 6.8 7.2 6.8 6.8 6.5 6.4 5.9 6.0 6.0 5.0 5.5 6.4 7.1 7.2
Wind_Speed
16 16 15 15 16 18 18 16 16 20 16 14 15 15 11 9 13 13 13 15 15 16 16 16 17 15 15 14 18 20 21 21 22
16 16 16 16 17 17 19 18 17 17 16 15 14 13 6 13 12 12 13 15 16 17 16 17 16 15 15 15 15 17 19 19 20
16 16 15 16 16 18 18 18 17 16 15 15 14 12 10 12 12 13 16 12 13 15 14 16 15 17 16 19 18 17 17 18 19
16 16 16 16 17 18 17 17 16 16 15 15 13 11 7 13 13 14 14 12 16 17 16 14 16 18 20 20 18 18 18 19 22
16 14 15 16 16 19 17 17 17 17 16 13 12 12 7 15 12 14 15 14 13 15 15 15 17 20 20 18 18 21 23 23 25
18 14 14 15 18 18 18 18 18 18 15 12 12 5 13 12 12 12 16 13 15 16 16 16 16 17 18 20 24 25 24 24 24
14 16 14 17 17 19 17 17 15 15 14 13 10 11 13 11 8 11 14 15 15 17 18 17 18 19 21 23 24 23 23 22 22
15 16 17 17 17 16 15 14 10 11 11 10 10 12 12 9 8 9 11 15 16 17 17 17 21 23 24 23 22 21 20 21 22
13 14 14 16 14 15 13 11 12 12 11 10 13 13 12 10 10 12 8 17 20 18 19 23 23 23 20 20 20 19 19 20 21
13 13 15 14 14 14 12 13 12 12 11 11 11 12 13 11 10 10 12 14 17 20 22 23 21 19 18 20 18 19 18 18 19
11 12 13 13 13 14 13 13 11 10 11 10 10 9 10 11 12 11 12 11 17 21 22 21 20 18 18 18 16 16 17 19 19
13 11 10 12 13 14 13 12 11 9 10 9 8 8 9 10 13 12 11 13 14 20 21 20 21 19 18 18 18 18 18 17 15
14 11 10 12 13 13 12 9 8 8 7 7 5 7 7 8 10 10 11 14 14 18 21 19 20 19 17 15 16 16 16 14 16
15 12 13 15 12 12 10 7 8 8 7 7 6 6 6 7 6 10 9 12 11 14 22 19 19 17 16 15 15 14 13 13 13
16 14 14 15 10 9 9 10 8 8 9 8 7 6 7 7 6 7 9 9 10 8 16 15 15 14 14 13 12 13 13 13 12
17 13 14 15 11 11 12 10 13 8 10 8 7 6 6 6 6 5 7 8 9 8 9 12 13 14 16 11 12 12 11 12 11
17 14 11 13 10 12 12 12 9 8 10 6 6 5 4 4 3 4 5 7 8 9 8 8 9 9 10 10 11 8 8 9 9
17 17 15 13 11 11 13 12 12 8 9 11 2 4 4 7 3 3 4 5 7 9 8 8 8 7 9 8 9 10 8 7 8
19 17 17 15 12 13 12 11 12 11 11 9 2 2 7 4 5 4 4 4 5 7 7 7 7 8 7 9 9 10 7 5 5
20 19 18 13 11 11 13 14 14 11 11 10 6 5 3 4 4 7 6 5 4 6 7 9 8 7 7 8 7 7 5 4 5
Wind_Direction
138 134 135 138 135 135 129 127 128 119 120 116 113 112 119 126 102 100 89 89 94 91 90 87 80 76 82 80 79 78 75 73 72
138 138 140 143 138 136 128 123 116 116 120 116 113 111 118 108 102 96 92 97 98 94 91 91 88 86 84 85 81 76 75 74 72
143 142 143 143 142 137 129 126 124 123 121 118 114 107 119 106 100 99 88 90 100 98 91 88 90 95 91 89 81 77 78 76 75
146 146 147 146 143 133 128 124 122 119 117 114 105 105 88 106 106 115 102 98 97 96 103 98 82 105 96 85 82 83 84 85 83
145 146 148 144 136 130 126 122 120 117 114 109 106 118 154 104 102 92 106 99 100 98 97 100 91 86 89 88 87 79 79 80 75
153 140 146 140 132 129 125 122 120 115 105 101 110 137 88 82 72 92 101 103 110 108 105 96 104 90 88 90 85 78 72 70 68
153 145 147 137 133 129 128 124 131 139 127 121 137 114 104 87 125 107 105 107 114 110 104 100 99 97 93 86 79 75 73 74 74
154 150 153 144 146 137 133 142 141 133 132 134 129 120 104 83 85 94 119 121 122 120 109 103 101 96 86 82 81 80 78 78 76
164 162 160 155 158 147 149 147 141 135 137 133 131 122 102 77 84 81 93 113 121 113 109 105 93 87 87 86 84 84 83 83 81
171 163 164 161 159 154 149 146 140 136 130 131 125 125 108 93 79 78 71 117 117 117 115 101 95 92 90 90 89 91 91 91 89
180 169 164 156 160 152 148 146 142 135 132 130 130 122 111 100 78 72 70 86 123 121 111 103 100 94 96 96 94 95 94 87 82
176 171 167 157 155 147 142 139 141 134 131 127 126 123 124 109 85 61 67 67 89 115 108 106 105 107 106 104 93 90 86 81 82
179 170 168 163 155 154 151 151 149 143 140 129 117 114 110 112 101 73 63 74 73 100 107 111 112 111 108 106 101 91 86 89 82
182 175 163 163 164 163 156 151 150 144 134 126 114 106 101 99 106 97 64 59 66 92 102 103 107 110 117 113 107 105 100 88 81
182 178 170 167 165 167 164 156 153 154 139 126 109 98 97 97 88 99 87 65 54 80 114 113 102 112 115 115 119 111 101 92 80
184 180 174 175 173 176 169 158 150 148 143 126 112 94 88 92 107 117 123 112 92 76 118 126 124 100 89 101 109 105 99 91 81
185 179 180 181 178 173 170 164 158 155 171 157 138 146 133 109 105 125 133 122 109 102 123 142 135 130 106 85 70 90 108 110 93
189 187 183 184 180 173 177 172 171 166 184 186 147 162 173 146 154 154 149 156 147 133 130 132 131 132 121 112 84 69 87 102 102
192 188 188 187 187 183 182 180 180 176 184 183 215 333 127 175 163 185 166 180 167 152 151 149 140 140 130 105 88 74 78 93 99
192 192 191 191 193 190 187 189 193 192 186 192 168 161 155 161 157 166 171 177 187 176 169 165 160 147 142 129 105 86 88 92 95